Location: CNYAC Observatory
(43.2150°N, 74.9500°W)
Time: 03:41:45
(UTC-04:00)

Meteor 1-22 Rocket - Pass Details

Date: 30 May 2018
Orbit: 786 x 941 km, 81.2° (Epoch: 19 June)

Event Time Altitude Azimuth Distance (km) Brightness Sun altitude
Rises 23:45:32 0° 337° (NNW) 3,310 8.8 -22.8°
Reaches altitude 10° 23:48:21 10° 323° (NW) 2,363 7.5 -23.0°
Maximum altitude 23:52:25 23° 272° (W) 1,627 5.8 -23.2°
Enters shadow 23:54:49 17° 237° (WSW) 1,909 5.9 -23.3°
